Retour au catalogue

SL-8 R/B

ActifLEO
NORAD 14179·ROCKET BODY·🇷🇺 Russia

Lancé Jul 6, 1983 depuis Plesetsk Cosmodrome

Loading…

Prochains Passages (prochaines 24 heures)

TLE

FraisSource: Space-Track

Époque: Sep 14, 2026, 09:28 UTC

1 14179U 83069J   26257.39488966  .00000042  00000-0  50288-3 0  9995
2 14179  74.0225  45.9258 0131011 300.6020  85.6684 12.26127621933221

Suivez SL-8 R/B en temps réel avec AllMySat

Download on the App Store